Location: Huppendorf
(49.9333°N, 11.1500°E)
Time: 07:54:23
(UTC+00:00)

ATLAS 2AS CENTAUR R/B - Pass Details

Date: 27 February 2020
Orbit: 929 x 1283 km, 63.7° (Epoch: 27 March)

Event Time Altitude Azimuth Distance (km) Brightness Sun altitude
Rises 19:48:25 0° 197° (SSW) 4,186 5.7 -28.5°
Reaches altitude 10° 19:51:15 10° 193° (SSW) 3,246 5.1 -28.9°
Enters shadow 19:53:44 22° 185° (S) 2,482 4.4 -29.2°
